IRIDIUM 75 [-]

Last updated on July 11, 2018, 12:20 a.m. UTC

1 25346U 98032E   18191.28036638  .20260072 -15268-5  23940-3 0  9996
2 25346  86.5326  60.0640 0048405  92.1908 268.7467 16.44512353 55608

Satellite is not in orbit.